This is the latest recevied weather packets stored in our database for station/object KF0FSA. If no packets are shown the sender has not sent any weather packets the latest 10 day(s).
| Time | Temp. | Humidity | Pressure | Rain* | Wind** | Luminosity | Snow |
|---|---|---|---|---|---|---|---|
| 1777843271 | 22.78° C | 29% | 955.2 hPa | 0 mm | - | 638 W/m² | - |
| 1777842968 | 22.22° C | 30% | 955.2 hPa | 0 mm | - | 652 W/m² | - |
| 1777842668 | 22.22° C | 29% | 955.3 hPa | 0 mm | - | 663 W/m² | - |
| 1777842365 | 22.22° C | 30% | 955.3 hPa | 0 mm | - | 670 W/m² | - |
| 1777842075 | 22.22° C | 31% | 955.5 hPa | 0 mm | - | 680 W/m² | - |
| 1777841759 | 22.22° C | 29% | 955.6 hPa | 0 mm | - | 698 W/m² | - |
| 1777841459 | 22.22° C | 30% | 955.6 hPa | 0 mm | - | 710 W/m² | - |
| 1777840560 | 22.22° C | 31% | 955.9 hPa | 0 mm | - | 750 W/m² | - |
| 1777840259 | 22.22° C | 30% | 955.9 hPa | 0 mm | - | 754 W/m² | - |
| 1777839960 | 22.22° C | 32% | 956 hPa | 0 mm | - | 771 W/m² | - |
| 1777839659 | 22.22° C | 32% | 956.1 hPa | 0 mm | - | 780 W/m² | - |
| 1777839359 | 22.22° C | 32% | 956.1 hPa | 0 mm | - | 795 W/m² | - |
| 1777838471 | 21.67° C | 33% | 956.3 hPa | 0 mm | - | 819 W/m² | - |
| 1777837554 | 21.67° C | 31% | 956.4 hPa | 0 mm | - | 846 W/m² | - |
| 1777836951 | 21.67° C | 32% | 956.4 hPa | 0 mm | - | 860 W/m² | - |
| 1777835437 | 21.11° C | 33% | 956.7 hPa | 0 mm | - | 885 W/m² | - |
| 1777835136 | 21.67° C | 33% | 956.7 hPa | 0 mm | - | 889 W/m² | - |
| 1777834537 | 21.11° C | 33% | 956.8 hPa | 0 mm | - | 896 W/m² | - |
| 1777833635 | 21.67° C | 34% | 956.9 hPa | 0 mm | - | 922 W/m² | - |
| 1777833033 | 21.11° C | 31% | 957.1 hPa | 0 mm | - | 922 W/m² | - |
| 1777832552 | 21.11° C | 32% | 957.3 hPa | 0 mm | - | 912 W/m² | - |
| 1777831532 | 21.11° C | 35% | 957.3 hPa | 0 mm | - | 911 W/m² | - |
| 1777829432 | 20.56° C | 36% | 957.6 hPa | 0 mm | - | 916 W/m² | - |
| 1777829132 | 20.56° C | 35% | 957.7 hPa | 0 mm | - | 892 W/m² | - |
| 1777827926 | 20° C | 36% | 957.7 hPa | 0 mm | - | 865 W/m² | - |
* Rain latest hour (hover to see other rain measurements)
** Current wind speed in m/s (hover to see current wind gust speed)